Погода Токо

Погода Токо : погода сейчас, прогноз погоды и архив. Всё, что Вы хотите узнать о погоде Токо!

Хотите узнать прогноз погоды Токо? Тогда Вам сюда: Погода Токо

Поиск расширенной информации на нашем сайте:

Другие новости

Новости СМИ2

Главная страница сайта

Новости сайта

03.07.2017

Напоминаем, что на нашем специализированном сайте Метеоцентр.Азия вы можете получить высокодетализированные автоматические прогнозы погоды по пунктам России, СНГ и мира в авиационном формате (включающие направление и скорость ветра, видимость, явления погоды, количество и форму облачности, нижнюю и верхнюю границу облачности).

Рекомендуем: Стенды и доски информации-Москва - школьные стенды. Стойки и стенды.

Погода Токо - сегодня

Время (UTC), дата Ветер
(°,м/с) 
Видим.   Явления Облачность Т
(°С)
Тd
(°С)
f(%) Тe
(°С)
Pmin
(гПа)
dP
(гПа)
Po
(мм)
O2
(г/м3)
Тmin Tmax R s Состояние
почвы
03 24.07.17 360 (С) 20000 м    9/9 600 м кучево-дожд. 
[Cb cap]
+13.2 +7 66 +14  1006.1  683  261           
06 24.07.17 180 (Ю) 20000 м    8/8 1000 м верхняя 
[Sc|Ci fib]
+15.8 +8.4 61 +18  1004.7  -0.4  682  258           
09 24.07.17 180 (Ю) 20000 м    9/9 1000 м 
[Sc]
+14.6 +8 65 +16  1005  -0.1  682  259           
12 24.07.17 200 (Ю) 20000 м    5/4 1000 м верхняя 
[Sc diur, vesp|Ci fib]
+10.8 +8.8 87 +13  1006.2  -0.1  682  263    +16.1       
15 24.07.17 320 (СЗ) 20000 м    ясно 
+0.9 +0.6 98 +2  1010.8  0.7  683  274           
18 24.07.17 тихо ()   20000 м    4/0 верхняя 
[Ci fib]
-1.7 -2.3 96 -2  1012.2  0.2  683  277           
21 24.07.17 тихо ()   20000 м    6/0 верхняя 
[Ci fib]
-2.1 -2.4 98 -2  1012.8  0.4  683  278           
00 25.07.17 360 (С) 20000 м    8/3 1000 м верхняя 
[Cu hum|Ci fib]
+11.2 +7 75 +12  1007.8  0.2  683  263  -2.4        влажная 
03 25.07.17 070 (В) 20000 м    8/6 1000 м верхняя 
[Cu med, cong|Ci]
+17.5 +6.8 49 +19  1005.5  -0.7  683  257           
06 25.07.17 070 (В) 20000 м    8/6 1000 м средняя, верхняя 
[Cu med, cong|Ac cast|Ci fib]
+17.9 +7 49 +19  1004.2  -0.4  683  257           
09 25.07.17 050 (СВ) 20000 м    8/6 1000 м средняя, верхняя 
[Cu med, cong|Ac trans|Ci fib]
+18.3 +6.7 47 +20  1003.6  -0.5  682  256           
12 25.07.17 140 (ЮВ) 20000 м    5/3 1000 м средняя, верхняя 
[Sc diur, vesp|Ac trans|Ci fib]
+13.4 +10.7 84 +19  1005.5  0.4  683  260    +18.5       
15 25.07.17 090 (В) 20000 м    4/0 средняя 
[Ac trans]
+2.5 +2 96 +3  1010.1  0.4  683  272           
18 25.07.17 180 (Ю) 20000 м    6/0 средняя 
[Ac trans]
+2.7 +1.9 94 +3  1009.5  -0.5  682  272           
21 25.07.17 180 (Ю) 20000 м  слаб. ливневой дождь  10/10 600 м кучево-дожд. 
[Cb cap]
+4.3 +3.8 97 +5  1009.4  0.4  683  270           
00 26.07.17 140 (ЮВ) 20000 м  {ливн. осадки}  10/10 600 м кучево-дожд. 
[Cb cap]
+12.8 +8.6 76 +15  1006.5  0.3  683  261  +2      влажная 
03 26.07.17 320 (СЗ) 20000 м  слаб. ливневой дождь  10/10 600 м кучево-дожд. 
[Cb cap]
+11 +9.7 92 +15  1006.2  -0.9  682  262           
06 26.07.17 340 (С) 20000 м  {ливн. осадки}  6/5 600 м кучево-дожд., верхняя 
[Cb cap|Ci]
+15.4 +10.9 75 +20  1004.7  0.1  682  258           
09 26.07.17 290 (З) 20000 м    5/4 1000 м верхняя 
[Cu hum|Ci fib]
+16.9 +10.5 66 +22  1003.3  -0.7  682  257           
12 26.07.17 тихо ()   20000 м    5/5 1000 м 
[Sc diur, vesp]
+10.6 +8.4 86 +12  1006.2  0.5  682  263    +17.2     
15 26.07.17 050 (СВ) 20000 м    3/3 1000 м 
[Sc diur, vesp]
+1.9 +1.1 94 +3  1010.7  683  273           
18 26.07.17 180 (Ю) 20000 м    4/3 1000 м верхняя 
[Sc|Ci fib]
-0.7 -1 98 1012.3  0.6  683  276           
21 26.07.17 тихо ()   20000 м    6/6 600 м кучево-дожд. 
[Cb cap]
+1.2 +1.2 100 +1  1012.4  0.7  684  274           
00 27.07.17 050 (СВ) 20000 м    4/4 1000 м 
[Cu med, cong]
+11.6 +7.7 77 +13  1009.1  0.6  684  263  -1.3        влажная 
03 27.07.17 360 (С) 20000 м  слаб. ливневой дождь  8/8 600 м кучево-дожд. 
[Cb cap]
+16.1 +9.5 65 +19  1007.5  684  259           
Время (UTC), дата Ветер
(°,м/с) 
Видим.   Явления Облачность Т
(°С)
Тd
(°С)
f(%) Тe
(°С)
Pmin
(гПа)
dP
(гПа)
Po
(мм)
O2
(г/м3)
Тmin Tmax R s Состояние
почвы

Для получения пояснительной информации подведите курсор к названию столбца.

ПОГОДА Токо - архив

Всё, что Вы хотите узнать о погоде Токо - удобно и подробно!

Выберите нужную дату (начиная с 1 января 2015* года) и нажмите кнопку "Найти".
Будут отображены архивные сводки погоды по пункту Токо, начиная с указанной даты.


Отображать данные в формате CSV (для использования в таблицах Excel)


Внимание! Наш архив погоды предназначен исключительно для личного некоммерческого использования в познавательных целях. Если Вам необходимы официальные справки о состоянии погоды (для производственных, юридических, коммерческих и т.п. целей), обращайтесь в органы Росгидромета.

*Примечание: данная дата относится к архиву по метеостанциям СССР (Россия, СНГ, Балтия).
Архив по метеостанциям Зарубежной Европы и Азии (кроме Китая) хранится 10 дней, по другим регионам земного шара (Китай, Африка, Америка, Австралия, Океания) - 1 день.

Токо - район местоположения метеостанции


Название, широта, долгота, высота метеостанции:
Токо 56.3°ш. 131.1°д. 850 м над ур. моря [Российская Федерация]

Дополнительная информация

В oтличие oт бoльшинства пoгoдных сайтoв мы публикуем пoдрoбную метеoинфoрмацию в детальнoм прoфессиoнальнoм фoрмате.

Характеристики температуры и влажнoсти вoздуха измеряются на высoте 2 м в тени вдали oт зданий и деревьев.
Скoрoсть ветра измеряется на высoте 10 м (на урoвне рoста челoвека скoрoсть ветра ниже в 1.5-2 раза). Если метеoстанция нахoдится в гoрoде или в лесу, тo скoрoсть ветра занижена на 2-4 м/с пo сравнению с oткрытым местoм. Скoрoсть ветра над акватoриями крупных рек и oзёр, а также на вершинах хoлмoв на 2-5 м/с выше, чем в oбычных услoвиях.
Атмoсфернoе давление в разных тoчках местнoсти мoжет значительнo oтличаться oт давления на метеoстанции, в зависимoсти oт услoвий рельефа (при пoдъёме на 10 м давление пoнижается примернo на 1 мм рт.ст.).